User: anonymous   Login
Location: NJAA Observatory
(40.6819°N, 74.8979°W)
Time: 04:22:59
(UTC-04:00)
Language:

Cosmos 220 Rocket - Orbit

View from above orbital plane
View from above orbital plane
View from above satellite
View from above satellite

Ground track
Ground track

The orbit data is extracted from the following two-line orbital elements,

1  3230U 68040B   17116.81024112 +.00000437 +00000-0 +48912-4 0  9993
2  3230 074.0366 346.0126 0031343 309.9935 049.8496 14.90124392606625
Epoch (UTC): 26 April 2017 19:26:44
Eccentricity: 0.0031343
inclination: 74.0366°
perigee height: 575 km
apogee height: 619 km
right ascension of ascending node: 346.0126°
argument of perigee: 309.9935°
revolutions per day: 14.90124392
mean anomaly at epoch: 49.8496°
orbit number at epoch: 60662

The dashed part of the orbit path shows where the satellite is in the earth's shadow,  

DLR